Regional Weather Roundup
Issued by NWS Jackson, KY

Home | Current Version | Previous Version | Text Only | Print | Product List | Glossary Off
Versions: 1 2 3 4 5 6 7 8 9 10 11 12 13 14 15 16 17 18 19 20 21 22 23 24 25 26 27 28 29 30 31 32 33 34 35 36 37 38 39 40 41 42 43 44 45 46 47 48 49 50

000
ASUS43 KJKL 220319
RWRJKL

EAST KENTUCKY HOURLY WEATHER ROUNDUP
NATIONAL WEATHER SERVICE JACKSON KY
1000 PM EST SUN DEC 21 2014

NOTE: "FAIR" INDICATES FEW OR NO CLOUDS BELOW 12,000 FEET WITH
NO SIGNIFICANT WEATHER AND/OR OBSTRUCTIONS TO VISIBILITY.

* THESE REPORTS ARE NOT UNDER NWS QUALITY CONTROL AND MAY NOT
  REPORT WEATHER SUCH AS PRECIPITATION AND FOG.

KYZ079-080-083-085-087-088-110-112-115-119-120-220400
...EASTERN KENTUCKY...

CITY           SKY/WX    TMP DP  RH WIND       PRES   REMARKS
JACKSON        CLOUDY    37  26  64 NE6       30.10F WCI  32
LONDON         CLOUDY    40  29  64 CALM      30.09F
SOMERSET*      CLOUDY    37  28  70 E5        30.10F WCI  34
MONTICELLO*    CLOUDY    38  33  82 CALM      30.11F
MIDDLESBORO*   CLOUDY    38  35  89 CALM      30.12S
HARLAN APT*    CLOUDY    34  32  93 E9        30.11S WCI  26
HAZARD APT*    CLOUDY    34  28  80 CALM      30.11F
BLACK MTN*       N/A     36  30  80 SE2         N/A
PIKEVILLE APT* CLEAR     32  25  74 NE5       30.11F WCI  27
BIG SANDY*     MOCLDY    33  28  79 NE3       30.12F
MOREHEAD APT*  MOCLDY    34  27  75 CALM      30.15S
ASHLAND*       CLEAR     28  21  74 W3        30.14F
$$

KYZ035-036-041-042-044-050-067-078-099-220400
...CENTRAL KENTUCKY...

CITY           SKY/WX    TMP DP  RH WIND       PRES   REMARKS
MT STERLING*   MOCLDY    32  28  86 E6        30.13F WCI  26
FLEMING/MASON* CLEAR     27  25  93 E6        30.15F WCI  20
DANVILLE*      MOCLDY    32  28  86 CALM      30.11F
RICHMOND*      MOCLDY    34  27  75 E6        30.10F WCI  29
LEXINGTON        N/A     32  27  81 E6        30.11F WCI  26
FRANKFORT      PTCLDY    30  25  81 E5        30.11F WCI  25
$$

KYZ091>093-OHZ055-061-077-WVZ005-015-034-035-042-220400
...SOUTHERN OHIO/WEST VIRGINIA...

CITY           SKY/WX    TMP DP  RH WIND       PRES   REMARKS
COVINGTON      PTCLDY    29  23  78 E5        30.12F WCI  24
COLUMBUS       MOCLDY    29  21  72 E3        30.18F
DAYTON         PTCLDY    27  24  89 SE7       30.15F WCI  19
WILMINGTON     CLEAR     27  23  85 E6        30.13F WCI  20
HUNTINGTON     MOCLDY    34  26  72 E3        30.14F
CHARLESTON     MOCLDY    30  26  85 CALM      30.14F
PINEVILLE*     CLEAR     31  31 100 MISG      30.17S
BECKLEY        CLEAR     36  29  75 SE12G18   30.11F WCI  28
BLUEFIELD      MOCLDY    39  31  72 SE12      30.12F WCI  32
$$

VAZ002-007-008-TNZ017-027-036-066-071-220400
...SOUTHWEST VIRGINIA/EAST TENNESSEE...

CITY           SKY/WX    TMP DP  RH WIND       PRES   REMARKS
WISE*          PTCLDY    37  32  81 S3        30.09S
JONESVILLE*    PTCLDY    30  30 100 CALM      30.13S
ABINGDON*      MOCLDY    40  34  79 E6        30.11S
BRISTOL        MOCLDY    42  34  73 E5        30.11S
KNOXVILLE      CLOUDY    42  35  76 NE3       30.09F
OAK RIDGE      CLOUDY    45  36  70 CALM      30.11S
CROSSVILLE     CLOUDY    44  36  73 SE3       30.08S
NASHVILLE      PTCLDY    45  37  73 SE5       30.05S
$$

...KEY TO REMARKS...
VSB - VISIBILITY IN MILES
WCI - WIND CHILL INDEX
HX  - HEAT INDEX

$$



USA.gov is the U.S. government's official web portal to all federal, state and local government web resources and services.